Hourly Data Report for August 17, 2018

TORONTO CITY
ONTARIO
Current Station Operator: ECCC - MSC

43°40'00.000" N
79°24'00.000" W
112.50 m
6158355
71508
XTO

Download Data

Hourly Data (August 2018)
Hourly Data Report for August 17, 2018
TIME
LST
Temp Definition
°C
Dew Point Definition
°C
Rel Hum Definition
%
Precip. Amount Definition
mm

Wind Dir Definition
10's deg

Wind Spd Definition
km/h
Visibility Definition
km
Stn Press Definition
kPa
Hmdx Definition


Wind Chill Definition


Weather Definition


00:00 24.1 20.4 80 0.0 LegendMM LegendMM   100.19 32   LegendNANA
01:00 23.2 20.7 86 0.0 LegendMM LegendMM   100.14 31   LegendNANA
02:00 23.2 20.9 87 0.0 LegendMM LegendMM   100.08 32   LegendNANA
03:00 23.1 20.4 85 0.0 LegendMM LegendMM   100.03 31   LegendNANA
04:00 23.4 20.8 86 0.0 LegendMM LegendMM   99.99 32   LegendNANA
05:00 23.6 20.9 85 0.0 LegendMM LegendMM   100.00 32   LegendNANA
06:00 23.8 21.0 84 0.0 LegendMM LegendMM   99.99 32   LegendNANA
07:00 24.0 20.9 83 0.0 LegendMM LegendMM   99.97 32   LegendNANA
08:00 24.4 21.1 82 0.0 LegendMM LegendMM   99.94 33   LegendNANA
09:00 24.7 21.1 80 0.0 LegendMM LegendMM   99.93 33   LegendNANA
10:00 24.7 21.1 80 0.0 LegendMM LegendMM   99.89 33   LegendNANA
11:00 25.5 21.0 76 0.0 LegendMM LegendMM   99.83 34   LegendNANA
12:00 26.8 21.0 70 0.0 LegendMM LegendMM   99.77 35   LegendNANA
13:00 25.3 22.7 86 2.8 LegendMM LegendMM   99.76 35   LegendNANA
14:00 26.2 21.3 74 0.0 LegendMM LegendMM   99.73 35   LegendNANA
15:00 26.2 20.6 71 0.0 LegendMM LegendMM   99.74 34   LegendNANA
16:00 23.1 20.8 87 18.2 LegendMM LegendMM   99.77 31   LegendNANA
17:00 24.3 21.4 84 1.4 LegendMM LegendMM   99.71 33   LegendNANA
18:00 23.6 20.8 84 0.9 LegendMM LegendMM   99.83 32   LegendNANA
19:00 22.9 20.6 87 1.2 LegendMM LegendMM   99.83 31   LegendNANA
20:00 22.4 20.2 87 1.5 LegendMM LegendMM   99.89 30   LegendNANA
21:00 22.1 20.0 88 0.0 LegendMM LegendMM   99.95 30   LegendNANA
22:00 22.2 19.9 87 0.0 LegendMM LegendMM   99.93 30   LegendNANA
23:00 22.3 19.0 82 0.0 LegendMM LegendMM   99.91 29   LegendNANA

Notes on Data Quality.

Legend

  • E = Estimated
  • M = Missing
  • NA = Not Available*
  • [empty] = Indicates an unobserved value
Date modified: